Lapse_Rate
5.7 6.5 6.5 6.5 6.5 6.5 6.5 6.5 6.5 6.5 6.5 6.5 6.5 6.5 6.5 6.0 5.3 5.3 5.9 5.2 4.1 4.1 3.1 3.0 1.9 0.5 0.1 0.3 0.4 -0.1 -1.1 -1.7 -1.8 -2.0 -2.5 -2.3 -1.6 -0.9 -0.8 -0.2 -0.2 -0.4 -0.2 0.1
6.5 6.5 6.5 6.5 6.5 6.5 6.5 6.5 6.5 6.5 6.5 6.5 6.5 6.5 6.5 6.4 6.2 5.9 6.3 5.7 3.5 4.1 4.0 3.6 1.7 1.3 1.1 0.5 0.3 0.2 -0.7 -1.0 -1.3 -1.6 -2.0 -1.2 -1.1 -0.8 -1.0 -0.9 -1.0 -0.9 -0.6 0.1
6.5 6.5 6.5 6.5 6.5 6.5 6.5 6.5 6.5 6.5 6.5 6.5 6.5 6.5 6.5 6.4 5.8 5.8 6.5 5.3 3.4 3.2 3.9 3.8 2.7 0.3 -0.3 0.5 1.0 1.1 -0.2 -0.7 -1.0 -1.1 -1.2 -1.2 -1.2 -1.1 -1.5 -1.8 -1.3 -0.2 0.7 1.8
6.5 6.5 6.5 6.5 6.5 6.5 6.5 6.5 6.5 6.5 6.5 6.5 6.5 6.5 6.5 6.5 6.5 6.5 6.3 5.9 4.3 4.0 4.2 3.5 1.4 0.2 0.3 0.2 1.6 1.1 0.8 0.3 -0.4 -1.5 -1.9 -2.1 -2.1 -2.0 -1.6 -1.2 -0.3 0.4 0.9 2.2
6.5 6.5 6.5 6.5 6.5 6.5 6.5 6.5 6.5 6.5 6.5 6.5 6.5 6.5 6.5 6.5 6.5 6.5 6.2 6.4 5.6 4.1 2.9 2.2 1.1 0.5 0.3 0.6 0.8 0.2 0.4 -0.1 -0.8 -1.6 -1.9 -2.3 -2.3 -1.9 -1.1 -0.6 -0.2 0.5 1.6 3.5
6.5 5.9 6.5 6.5 6.5 6.5 6.5 6.5 6.5 6.5 6.5 6.5 6.5 6.5 6.5 6.5 6.5 6.5 6.3 6.4 5.5 3.2 2.8 2.2 1.5 1.1 -0.1 0.1 -0.1 0.5 0.3 0.0 -0.9 -1.6 -2.0 -2.4 -2.3 -1.5 -0.8 -0.8 0.0 0.7 1.7 3.9
6.5 6.5 6.5 6.5 6.5 6.5 6.5 6.5 6.5 6.5 6.5 6.5 6.5 6.5 6.5 6.5 6.5 6.5 6.5 6.4 4.7 3.3 2.6 2.4 0.9 1.0 0.7 0.2 0.8 0.8 0.1 0.0 -1.1 -1.9 -2.0 -2.2 -1.8 -0.5 -0.0 -0.3 1.0 0.8 1.9 3.7
6.5 6.5 6.5 6.5 6.5 6.5 6.5 6.5 6.5 6.5 6.5 6.5 6.5 6.5 6.5 6.5 5.6 5.8 6.6 6.2 4.1 3.1 3.1 2.5 0.7 1.9 1.6 0.6 0.4 0.2 -0.1 -0.5 -1.3 -1.8 -2.1 -2.0 -1.2 -0.8 -1.1 0.0 0.7 0.8 2.5 3.8
6.5 6.5 6.5 6.5 6.5 6.5 6.5 6.5 6.5 6.5 6.5 6.5 6.5 6.5 6.5 6.5 6.5 6.3 6.3 6.0 5.1 3.8 2.7 1.5 1.9 2.0 -0.1 -1.1 -0.9 -1.0 -0.9 -1.2 -1.5 -1.6 -1.9 -2.1 -2.1 -2.3 -1.6 -0.3 0.2 0.5 2.4 3.7
6.5 6.5 6.5 6.5 6.5 6.5 6.5 6.5 6.5 6.5 6.5 6.5 6.5 6.5 6.5 6.5 6.5 6.5 6.4 6.1 5.2 3.4 1.9 1.3 2.1 0.8 -1.0 -1.3 -1.7 -1.5 -1.3 -1.7 -1.7 -1.7 -2.1 -3.1 -2.7 -2.0 -1.1 -0.9 -0.8 -0.6 1.2 1.8
6.5 6.5 6.5 6.5 6.5 6.5 6.5 6.5 6.5 6.5 6.5 6.5 6.5 6.5 6.5 6.5 6.5 6.5 6.4 5.3 3.4 2.8 1.6 0.5 0.9 -0.8 -1.6 -1.3 -1.7 -2.0 -2.4 -2.5 -2.3 -2.4 -3.0 -3.0 -2.6 -1.8 -1.3 -1.0 -1.0 -0.6 0.0 1.0
6.5 6.5 6.5 6.5 6.5 6.5 6.5 6.5 6.5 6.5 6.5 6.5 6.5 6.5 6.5 6.5 6.5 5.9 6.3 5.9 4.4 3.1 1.2 0.5 -2.4 -2.9 -2.5 -3.1 -3.6 -3.6 -3.3 -3.1 -2.6 -2.5 -2.5 -2.6 -2.5 -2.3 -1.9 -1.7 -1.3 -0.8 -0.5 0.2
6.5 6.5 6.5 6.5 6.5 6.5 6.5 6.5 6.5 6.5 6.5 6.5 6.5 6.5 6.5 6.4 6.3 6.0 5.6 3.7 2.7 0.5 -1.3 -1.6 -2.2 -3.6 -4.1 -3.6 -4.2 -4.2 -4.6 -4.9 -3.1 -2.3 -2.8 -2.8 -3.2 -2.6 -3.2 -2.3 -1.8 -1.3 -0.8 -0.5
5.7 6.5 6.5 6.5 6.5 6.5 6.5 6.5 6.5 6.5 6.5 6.5 6.5 6.5 6.5 6.5 6.5 6.2 5.0 2.3 0.3 -0.3 -0.7 -0.8 -1.5 -2.3 -2.8 -3.0 -4.4 -4.8 -3.7 -5.0 -4.9 -4.1 -3.6 -3.8 -4.8 -4.0 -3.5 -2.4 -1.6 -1.4 -1.0 -0.4
6.5 6.5 6.5 6.5 6.5 6.5 6.5 6.5 6.5 6.5 6.5 6.5 6.5 6.5 6.5 6.5 6.5 5.6 4.0 2.1 1.9 2.0 0.5 -0.6 -1.1 -2.1 -1.9 -2.7 -2.8 -2.5 -2.8 -5.5 -6.3 -5.1 -4.9 -5.7 -4.8 -2.2 -0.7 -0.7 -0.3 -0.9 -1.3 -0.9
6.5 6.5 6.5 6.5 6.5 6.5 6.5 6.5 6.5 6.5 6.5 6.5 6.5 6.5 6.5 5.0 5.3 5.1 4.3 3.0 3.4 2.5 1.5 0.6 -0.5 -0.8 -1.1 -1.5 -2.3 -0.9 -1.4 -3.4 -3.6 -5.4 -6.1 -5.1 -3.8 -3.4 -1.2 -0.7 -0.6 -1.2 -1.0 -1.4
6.5 6.5 6.5 6.5 6.5 6.5 6.5 6.5 6.5 6.5 6.5 6.5 6.5 6.5 6.5 6.5 6.5 4.8 3.3 3.6 2.8 1.1 0.6 0.4 -0.4 -0.3 -0.2 -0.7 -0.6 -0.9 -1.2 -1.4 -1.9 -4.1 -6.7 -4.8 -4.4 -4.2 -3.0 -0.3 -0.7 -1.5 -3.1 -2.5
6.5 6.5 6.5 6.5 6.5 6.5 6.5 6.5 6.5 6.5 6.5 6.5 6.5 6.5 6.5 6.1 4.4 3.5 3.2 1.7 1.5 1.0 0.2 0.5 0.0 0.4 0.7 0.6 0.6 0.4 -0.2 -0.5 -0.9 -1.0 -1.2 -4.0 -3.6 -3.3 -3.7 -2.8 -2.6 -2.6 -2.9 -3.4
6.5 6.5 6.5 6.5 6.5 6.5 6.5 6.5 6.5 6.5 6.5 6.5 6.5 6.5 6.1 4.6 4.2 4.6 3.6 2.7 1.2 0.1 -0.3 -0.8 -0.7 0.2 0.9 0.9 0.8 0.9 0.7 0.5 0.3 0.6 1.1 1.4 -0.3 -1.8 -2.4 -1.4 -0.9 -1.7 -2.1 -2.9
6.5 6.5 6.5 6.5 6.5 6.5 6.5 6.5 5.6 6.5 6.5 6.5 6.1 6.5 6.5 5.3 6.5 6.5 3.0 2.3 0.8 -2.5 -2.0 -1.8 -0.7 1.0 0.6 0.5 1.4 1.4 0.9 0.7 0.7 1.5 2.0 2.7 2.6 2.7 1.9 1.0 0.4 1.2 1.3 -0.4
6.5 6.5 6.5 6.5 6.5 6.5 6.5 6.4 6.1 6.5 6.5 5.3 4.6 4.3 5.0 6.5 4.6 0.7 0.2 -0.1 -1.7 -4.7 -2.8 -2.4 -1.1 -0.8 -0.9 0.1 0.9 0.3 0.0 0.2 -0.0 2.0 2.7 3.0 3.4 3.7 3.6 3.8 4.9 4.9 3.9 3.4
6.5 6.5 6.5 6.5 6.5 6.5 6.1 6.4 6.5 6.1 5.1 4.2 3.0 2.6 0.2 -0.5 -1.8 -1.7 -2.2 -2.5 -2.1 -2.9 -3.3 -4.0 -2.4 -2.4 -4.2 -0.8 0.1 -0.2 0.4 -1.6 -0.4 0.4 0.8 1.1 1.3 3.8 4.4 4.5 4.3 6.2 5.3 4.2
6.5 6.5 6.5 6.5 6.5 6.2 5.2 5.9 4.5 3.1 3.5 5.3 2.9 1.0 -1.6 -1.7 -0.9 -1.8 -2.6 -2.2 -2.0 -2.8 -3.5 -4.4 -2.5 -3.7 -5.3 -2.8 0.4 -0.1 -1.3 -1.1 -0.7 -0.3 0.2 -0.4 1.1 1.8 0.9 2.2 2.2 3.8 4.5 4.0
6.5 6.3 6.5 6.5 6.5 6.5 5.3 5.5 4.4 4.5 4.9 4.0 2.5 -0.0 -0.9 -1.0 -2.4 -1.5 -2.5 -1.8 -1.2 -1.8 -1.6 -1.9 -1.9 -1.9 -2.6 -2.8 0.1 0.8 -1.1 -0.5 0.0 -0.3 -0.0 0.1 2.0 0.9 0.6 2.0 2.3 2.6 1.7 1.8
6.4 6.5 6.5 6.5 6.5 6.2 5.8 4.6 4.4 4.2 3.6 3.2 2.0 0.7 0.6 -0.1 -1.7 -1.9 -2.0 -1.2 -0.7 -0.9 -1.0 -0.5 -0.0 0.4 -0.2 -0.8 -1.4 -0.8 -0.5 0.1 1.1 1.7 2.2 3.7 3.5 2.0 1.2 1.3 2.0 2.5 -0.7 2.1
6.1 6.5 6.5 6.5 5.4 5.2 4.8 3.8 3.2 3.0 3.1 3.0 3.2 2.5 1.5 0.7 -0.7 -1.1 -0.8 -0.4 -0.6 -0.4 -0.5 0.2 0.9 1.3 0.5 0.5 -0.1 0.1 0.7 1.3 2.1 3.2 4.3 4.1 3.4 3.4 2.9 2.4 2.3 4.5 4.0 3.5
Wind_Speed
4 3 12 13 8 4 3 5 8 4 4 4 7 7 16 16 10 11 15 15 13 12 10 8 9 8 8 7 7 6 6 5 5 4 4 3 4 5 5 12 14 16 16 17
5 11 14 9 8 7 7 12 10 5 3 2 7 8 14 16 19 22 21 16 16 11 10 9 9 6 6 7 7 7 7 6 5 3 3 3 2 3 4 10 14 18 20 19
15 9 13 14 13 10 11 7 5 5 5 5 4 5 6 9 11 9 13 16 17 20 16 13 10 8 8 7 7 7 6 6 6 6 3 2 2 2 4 7 7 14 17 17
11 15 17 13 15 9 9 6 6 3 3 4 6 5 6 7 19 16 18 18 17 15 12 12 10 7 8 6 6 7 6 6 6 6 6 7 3 4 4 6 6 9 15 16
7 5 12 16 15 11 9 7 5 4 2 2 3 3 6 6 8 14 17 20 16 15 15 14 11 9 7 7 7 7 7 7 7 7 6 4 5 3 3 3 6 7 11 15
9 7 3 6 4 10 6 5 5 3 3 6 6 5 16 6 8 6 11 18 17 13 11 11 8 10 7 6 7 7 7 6 6 7 7 7 7 5 5 5 5 6 7 8
13 19 18 13 9 3 2 7 0 2 1 8 8 7 16 5 7 13 21 19 16 14 14 13 12 9 8 8 7 6 7 6 7 8 7 6 6 5 6 5 5 7 7 7
11 9 17 10 17 8 7 8 6 7 4 4 4 5 5 6 9 13 17 18 15 14 13 13 13 11 9 9 7 7 7 7 7 7 7 6 5 4 3 4 4 4 6 7
4 4 5 13 22 11 3 6 7 6 2 2 4 1 3 6 11 13 14 15 14 14 13 12 13 10 10 8 7 8 8 7 7 6 5 5 5 6 5 5 5 4 7 7
6 8 3 6 2 12 19 6 2 4 5 6 4 5 4 4 8 11 13 14 13 10 9 10 11 11 8 8 7 7 7 8 6 6 4 5 5 5 5 5 5 6 7 11
12 6 3 4 2 6 3 5 3 4 4 3 1 5 5 9 11 13 13 13 14 14 13 12 10 9 9 7 6 6 6 7 5 5 5 5 5 5 5 4 5 6 7 9
10 6 11 18 11 7 9 14 8 4 5 10 3 5 2 10 10 11 13 15 10 13 11 10 10 10 8 6 6 5 5 6 5 5 5 5 4 4 4 3 5 8 6 9
1 3 3 2 2 3 6 4 6 14 1 4 5 5 2 5 8 11 11 6 10 13 11 10 10 9 8 7 6 6 5 5 4 5 5 4 4 4 3 3 4 6 5 5
5 5 5 5 3 5 5 5 6 7 5 5 6 4 4 6 9 6 7 9 11 12 14 12 9 9 8 7 6 6 5 4 4 5 4 5 3 3 2 3 3 7 7 7
5 3 5 9 15 17 4 4 8 6 6 8 7 10 8 9 10 9 8 8 11 13 13 13 12 10 9 8 8 7 6 4 4 5 5 3 2 2 3 4 5 7 8 6
1 5 4 4 7 6 5 12 4 1 2 3 6 8 7 8 6 8 11 12 13 14 14 14 12 12 11 11 10 9 8 6 6 5 4 2 3 3 3 3 6 6 7 6
3 5 5 7 15 2 5 7 5 4 5 6 7 8 6 7 8 7 11 13 13 14 15 15 14 13 11 12 12 10 9 8 7 6 3 3 2 3 2 4 6 5 3 4
5 4 2 3 4 8 10 6 7 10 10 9 11 4 6 5 4 4 4 9 9 10 11 11 12 11 11 11 11 11 10 9 8 7 5 4 3 3 2 4 4 2 2 3
2 5 2 3 5 5 7 5 7 8 21 11 9 7 4 7 5 5 3 3 7 9 10 11 12 11 10 13 13 12 11 9 8 8 7 7 5 4 3 3 5 3 3 2
5 3 7 3 4 6 5 7 6 5 13 8 11 7 11 6 3 4 5 2 4 4 7 11 11 12 12 12 13 12 11 10 9 9 8 7 6 6 5 4 4 4 2 2
9 5 12 8 4 6 6 7 4 9 7 7 8 8 9 6 4 4 8 3 3 3 8 8 10 12 11 11 12 10 10 10 7 8 8 7 6 5 5 4 3 5 6 5
10 8 4 5 6 8 6 3 7 6 1 4 6 6 6 5 5 5 5 6 7 8 6 5 9 8 5 10 12 11 10 6 7 7 6 5 3 2 2 3 1 5 8 6
2 6 5 7 6 6 4 4 1 5 5 4 7 5 10 9 7 8 7 7 6 7 7 3 9 8 2 5 12 12 9 9 8 7 6 4 4 4 3 5 3 4 5 4
3 4 4 3 4 5 6 0 3 4 5 7 6 7 7 8 9 9 7 8 8 8 9 6 9 8 7 3 6 9 11 9 9 8 6 4 6 5 4 3 2 4 4 4
6 5 4 2 3 1 3 6 6 6 8 7 6 8 10 8 9 9 9 10 9 9 8 9 9 9 8 7 6 8 9 10 9 8 6 7 6 6 5 3 3 3 0 5
2 4 4 4 6 5 5 7 7 8 7 8 9 5 4 8 11 9 9 10 10 10 10 9 9 9 9 9 8 9 10 10 10 9 7 6 6 5 6 6 5 12 12 14
Wind_Direction
185 153 224 224 217 213 247 298 278 261 236 117 183 159 180 187 171 168 173 162 155 157 167 154 141 135 122 105 102 90 87 53 54 27 11 23 20 29 27 20 17 8 5 359
212 220 224 228 237 242 250 250 271 281 261 129 180 208 199 187 198 190 174 164 162 156 158 157 146 129 117 118 104 83 81 67 58 59 41 40 3 27 25 10 9 7 3 355
217 227 221 227 246 237 242 196 226 193 312 351 100 287 174 222 221 190 182 169 168 165 163 164 150 146 133 119 115 102 104 85 68 67 61 25 23 15 13 11 4 357 353 348
240 234 244 242 236 199 228 212 220 275 127 226 167 261 271 224 207 189 179 174 173 166 161 157 145 141 137 134 122 103 99 89 79 71 64 58 51 27 3 358 343 345 352 346
214 222 215 231 240 199 219 207 201 185 225 117 252 265 237 231 208 201 180 176 172 167 162 157 150 142 141 138 112 113 102 81 78 75 79 77 56 44 5 333 345 345 355 346
228 271 210 213 223 236 184 100 47 63 109 261 194 177 272 206 222 164 171 169 164 153 146 137 130 131 132 123 101 115 103 89 87 83 70 68 60 29 14 359 356 354 352 339
247 245 265 264 279 192 114 119 48 310 191 238 197 222 249 293 266 175 168 164 154 148 143 143 140 142 140 127 122 131 106 84 86 80 73 64 53 34 25 352 359 355 346 354
216 243 217 219 218 195 187 166 167 202 202 247 222 231 253 311 278 168 151 139 142 149 151 160 148 153 151 135 131 111 103 88 87 83 72 57 39 34 21 343 355 349 350 353
166 262 308 212 219 193 223 193 180 145 348 55 233 207 307 29 73 109 127 138 150 158 169 164 153 153 149 131 127 120 107 95 89 88 81 67 51 42 15 341 351 347 345 3
226 260 263 302 89 215 210 176 126 83 209 221 233 199 207 186 127 130 145 163 169 161 158 153 154 150 131 126 123 105 102 101 103 98 86 67 50 33 2 6 357 15 6 7
206 160 220 21 220 189 177 143 129 164 176 181 200 255 213 173 158 159 170 178 175 174 171 162 147 134 127 119 117 117 109 111 103 93 82 72 50 23 14 23 10 17 28 11
203 183 228 233 225 284 229 212 159 153 196 226 184 257 183 172 174 165 180 194 177 175 165 153 138 132 132 130 122 131 120 102 98 97 91 77 46 25 20 12 29 31 22 19
238 53 295 69 290 263 195 184 144 196 102 212 150 262 185 159 185 195 186 145 159 157 149 145 143 149 150 148 139 122 113 115 113 112 102 73 45 43 11 14 37 41 20 13
102 144 172 241 236 173 181 183 171 155 179 199 213 218 223 195 191 192 200 179 172 172 163 158 159 163 157 148 142 136 136 134 126 112 106 85 48 43 37 14 44 54 42 18
119 151 159 227 273 271 292 249 189 172 178 188 220 213 191 207 208 189 212 144 152 165 171 177 172 168 162 154 152 156 145 137 131 120 109 93 24 56 67 51 61 63 50 28
102 181 103 278 222 264 200 218 176 132 156 208 173 252 182 224 203 168 174 167 177 183 185 181 173 168 169 167 164 161 154 148 139 134 124 114 83 78 85 78 74 66 59 34
121 135 151 240 249 124 316 196 177 199 206 168 202 222 173 216 215 190 186 184 178 181 182 179 176 170 171 172 163 162 154 146 148 137 135 131 128 110 118 111 88 71 46 39
126 105 104 251 144 206 239 164 188 212 236 227 248 206 197 211 100 97 151 164 176 172 171 172 168 166 164 159 157 146 149 154 150 145 152 167 154 144 135 118 114 82 40 53
176 112 138 209 217 302 276 184 182 183 252 226 227 239 136 116 73 360 6 127 180 176 174 170 163 155 152 157 153 149 154 154 150 157 166 168 165 154 142 130 149 157 88 42
171 118 188 169 218 214 256 234 194 112 266 197 193 184 148 149 123 239 197 147 126 127 143 146 147 148 147 157 152 154 160 159 166 169 170 170 172 167 164 173 167 151 156 139
185 181 208 214 229 277 246 262 97 164 249 206 167 156 153 166 184 156 133 121 112 141 136 129 141 154 155 150 149 148 150 164 158 162 166 173 177 175 183 196 191 147 153 142
176 170 187 189 216 253 223 328 208 222 277 144 124 128 119 120 115 125 137 151 146 135 119 117 131 138 141 147 144 149 154 152 136 129 133 140 145 160 157 133 78 143 150 141
157 183 174 184 205 225 276 210 347 169 154 149 114 134 143 139 166 169 163 157 153 145 131 95 138 134 91 136 152 151 159 149 137 131 140 136 109 96 82 107 77 95 107 117
291 177 175 113 235 217 208 56 126 111 122 131 134 145 165 159 166 173 161 163 160 154 154 143 140 151 156 151 149 153 155 148 142 143 149 133 124 105 82 78 74 109 111 104
203 149 179 248 286 264 235 169 165 138 117 109 133 158 180 154 178 170 174 173 172 165 156 160 165 167 167 155 140 148 151 148 152 155 157 150 138 128 110 93 113 109 192 130
202 176 151 222 220 199 218 201 193 173 187 178 162 137 174 176 173 163 176 176 168 168 160 165 169 165 161 157 153 155 158 158 161 169 172 154 145 142 133 128 117 113 119 122